Dundee, United Kingdom

1:00 AM BST on June 27, 2017 (GMT +0100)
Dundee

Weather History for EGPN - February, 2013

Change the Weather History Date:

Sunday, February 24, 2013

  Actual Average Record
Temperature  
Mean Temperature 40 °F -  
Max Temperature 46 °F 45 °F 53 °F (2011)
Min Temperature 35 °F 37 °F 28 °F (2016)
Degree Days  
Heating Degree Days 24    
Moisture  
Dew Point 35 °F    
Average Humidity 86    
Maximum Humidity 93    
Minimum Humidity 66    
Precipitation  
Precipitation 0.00 in - - ()
Sea Level Pressure  
Sea Level Pressure 30.44 in    
Wind  
Wind Speed 5 mph ()    
Max Wind Speed 12 mph    
Max Gust Speed 22 mph    
Visibility 6.1 miles    
Events Rain    
Averages and records for this station are not official NWS values.
T = Trace of Precipitation, MM = Missing Value Source: Averaged Metar Reports

Daily Weather History Graph

Daily Weather History Graph

Search for Another Location

Airport or City:

Trip Planner

Search our weather history database for the weather conditions in past years. The results will help you decide how hot, cold, wet, or windy it might be!

Date:

Astronomy

Feb. 24, 2013 Rise Set
Actual Time 7:16 AM GMT 5:34 PM GMT
Civil Twilight 6:38 AM GMT 6:13 PM GMT
Nautical Twilight 5:54 AM GMT 6:56 PM GMT
Astronomical Twilight 5:11 AM GMT 7:40 PM GMT
Moon 4:28 PM GMT (2/24) 6:12 AM GMT (2/24)
Length of Visible Light 11h 34m
Length of Day
10h 18m
Waxing Gibbous, 98% of the Moon is Illuminated
Feb 24
Waxing Gibbous
Feb 25
Full
Mar 4
Last Quarter
Mar 11
New
Mar 19
First Quarter

Hourly Weather History & Observations

Time (GMT) Temp. Windchill Dew Point Humidity Pressure Visibility Wind Dir Wind Speed Gust Speed Precip Events Conditions
9:20 AM 37.4 °F - 35.6 °F 93% 30.42 in 6.2 mi WNW 2.3 mph - N/A   Mostly Cloudy
9:50 AM 37.4 °F 34.9 °F 35.6 °F 93% 30.42 in 6.2 mi West 3.5 mph - N/A   Mostly Cloudy
10:20 AM 37.4 °F 33.8 °F 35.6 °F 93% 30.45 in 6.2 mi West 4.6 mph - N/A   Mostly Cloudy
10:50 AM 37.4 °F 32.8 °F 35.6 °F 93% 30.45 in 6.2 mi WSW 5.8 mph - N/A   Mostly Cloudy
11:20 AM 37.4 °F 32.8 °F 35.6 °F 93% 30.45 in 6.2 mi SW 5.8 mph - N/A   Mostly Cloudy
11:50 AM 39.2 °F 34.2 °F 35.6 °F 87% 30.45 in 6.2 mi WSW 6.9 mph - N/A   Mostly Cloudy
12:20 PM 39.2 °F 35.9 °F 35.6 °F 87% 30.45 in 6.2 mi WSW 4.6 mph - N/A   Scattered Clouds
12:50 PM 41.0 °F 36.4 °F 35.6 °F 81% 30.42 in 6.2 mi WSW 6.9 mph - N/A   Scattered Clouds
1:20 PM 41.0 °F 37.1 °F 37.4 °F 87% 30.42 in 6.2 mi SW 5.8 mph - N/A   Scattered Clouds
1:50 PM 42.8 °F 40.1 °F 35.6 °F 76% 30.42 in 6.2 mi SE 4.6 mph - N/A   Scattered Clouds
2:20 PM 46.4 °F 41.5 °F 37.4 °F 71% 30.42 in 6.2 mi ENE 10.4 mph - N/A   Scattered Clouds
2:50 PM 44.6 °F 40.7 °F 33.8 °F 66% 30.42 in 6.2 mi NNE 6.9 mph - N/A   Scattered Clouds
3:20 PM 44.6 °F 40.7 °F 33.8 °F 66% 30.42 in 6.2 mi North 6.9 mph - N/A   Partly Cloudy
3:50 PM 41.0 °F 34.7 °F 35.6 °F 81% 30.42 in 6.2 mi East 10.4 mph 21.9 mph N/A   Mostly Cloudy
4:20 PM 39.2 °F 32.0 °F 35.6 °F 87% 30.42 in 6.2 mi East 11.5 mph - N/A   Mostly Cloudy
4:50 PM 39.2 °F 35.9 °F 35.6 °F 87% 30.42 in 6.2 mi East 4.6 mph - N/A   Mostly Cloudy
5:20 PM 37.4 °F - 35.6 °F 93% 30.42 in 6.2 mi Calm Calm - N/A   Scattered Clouds
5:50 PM 37.4 °F - 33.8 °F 87% 30.45 in 6.2 mi NW 1.2 mph - N/A   Scattered Clouds
6:20 PM 35.6 °F - 33.8 °F 93% 30.45 in 6.2 mi WNW 2.3 mph - N/A   Scattered Clouds
6:50 PM 39.2 °F 37.0 °F 33.8 °F 81% 30.45 in 6.2 mi NNE 3.5 mph - N/A   Scattered Clouds
7:20 PM 39.2 °F 35.0 °F 33.8 °F 81% 30.45 in 6.2 mi NNE 5.8 mph - N/A   Scattered Clouds
7:50 PM 39.2 °F 32.5 °F 35.6 °F 87% 30.48 in 6.2 mi East 10.4 mph - N/A   Scattered Clouds
8:20 PM 37.4 °F 30.3 °F 35.6 °F 93% 30.48 in 4.3 mi ENE 10.4 mph - N/A Rain Rain
8:50 PM 37.4 °F 32.8 °F 35.6 °F 93% 30.48 in 6.2 mi NNE 5.8 mph - N/A   Mostly Cloudy
9:20 PM 39.2 °F 33.6 °F 35.6 °F 87% 30.48 in 6.2 mi North 8.1 mph - N/A   Mostly Cloudy
9:50 PM 37.4 °F 32.1 °F 35.6 °F 93% 30.48 in 6.2 mi NNE 6.9 mph - N/A   Mostly Cloudy